Lid_Strength_Index
5 5 2 2 1 1 2 2 2 2 3 3 2 2 2 2 2 4 5 5 7 9 9 8 8 9 8 8 10 7 9 9 10 12 13 13 14 13 14 12 14 14 15 16 16 17 19 12 13 14 13 11 12 13
5 4 2 2 1 2 2 2 2 2 3 3 2 2 2 2 2 2 5 4 4 8 8 6 5 5 6 5 7 6 8 10 8 11 12 11 13 12 13 16 11 15 13 14 16 16 12 12 13 12 11 13 12 13
5 3 2 2 2 2 2 2 2 2 2 2 2 2 2 2 2 3 5 5 6 8 10 10 7 4 4 4 3 8 6 6 8 9 10 11 13 12 14 14 13 11 10 13 14 13 13 12 12 11 11 12 11 10
4 2 2 2 2 2 2 2 2 2 2 2 2 2 2 2 2 4 7 6 6 9 13 11 5 6 4 4 4 4 5 4 7 10 12 12 13 10 12 11 12 11 11 13 14 13 13 12 11 11 11 11 11 10
3 2 2 2 2 2 2 2 2 2 2 2 3 3 2 2 2 4 6 7 7 8 12 12 9 7 7 6 5 6 8 8 9 10 11 11 9 10 11 11 12 10 12 13 15 12 12 13 11 10 11 11 10 10
3 2 2 2 2 2 2 2 2 2 2 2 3 3 2 2 3 4 8 6 6 6 11 12 8 9 8 7 8 7 6 8 8 9 10 9 9 10 12 13 10 9 8 9 12 11 10 10 10 8 9 9 10 10
3 2 2 2 2 2 2 2 2 2 2 2 3 3 2 3 5 7 8 6 4 7 11 10 9 6 7 8 10 10 8 8 9 10 11 11 11 11 13 14 10 9 8 8 8 9 11 9 10 9 8 8 8 8
3 2 2 2 2 2 2 2 2 2 2 2 3 3 3 3 4 7 6 4 5 9 10 13 10 8 6 9 10 10 12 10 8 9 9 11 11 12 14 11 10 8 8 8 9 8 9 9 9 9 8 8 9 9
3 2 2 2 2 2 2 2 2 2 3 3 3 2 5 6 8 7 3 3 5 7 9 10 11 13 7 7 8 10 11 11 9 10 9 10 13 14 12 11 10 9 9 9 8 8 9 9 10 9 9 8 8 8
3 3 2 2 2 2 2 2 2 2 3 3 5 5 7 6 2 3 7 7 7 8 9 11 8 10 8 8 8 9 9 10 12 9 8 11 12 11 10 9 9 9 8 9 10 11 10 10 10 10 10 9 8 8
3 3 2 2 2 2 2 2 2 3 4 6 7 5 6 3 6 6 8 9 9 10 9 9 8 10 7 9 9 8 10 9 13 11 11 11 12 10 9 9 8 9 8 8 9 9 9 9 9 9 9 9 8 7
3 3 3 2 3 3 2 2 2 4 6 5 6 5 7 7 7 10 10 9 10 11 8 9 9 8 6 6 8 8 11 10 13 8 11 16 10 8 8 7 7 9 8 8 8 8 8 8 8 8 9 9 9 7
3 3 3 2 3 3 2 2 2 3 4 5 6 8 8 8 13 12 15 12 12 10 9 9 10 7 8 8 8 10 12 12 9 12 12 11 8 7 8 7 7 8 7 7 7 8 8 8 8 8 9 8 8 8
3 3 3 3 3 2 2 2 1 3 6 6 8 12 10 11 11 10 11 11 9 9 9 10 9 9 9 9 9 11 10 10 13 18 15 10 7 8 8 7 9 9 7 6 7 7 8 9 9 8 8 8 9 9
3 3 3 3 3 2 2 2 2 5 5 7 7 11 10 9 9 9 8 9 8 8 9 9 8 9 10 10 10 11 12 16 12 15 11 9 8 8 8 8 9 9 7 7 6 6 7 8 8 9 8 8 8 9
3 3 3 4 3 2 3 3 4 5 4 6 7 9 9 10 10 10 9 9 9 9 9 9 10 10 11 12 12 13 13 17 14 11 9 8 8 9 9 8 9 8 8 8 7 6 6 6 9 8 8 8 7 8
3 5 3 2 2 2 3 4 3 5 6 7 8 8 9 10 10 9 9 9 9 9 11 11 12 13 12 13 13 13 14 12 11 10 9 8 8 8 8 8 8 8 8 9 9 8 8 6 6 7 9 8 7 7
5 3 3 3 3 3 4 4 4 6 8 6 9 8 8 8 9 8 8 8 9 10 10 11 11 13 14 13 13 11 10 9 9 9 8 8 7 8 8 8 8 8 9 9 10 10 10 9 9 8 7 8 8 8
5 4 4 3 3 5 4 4 5 8 7 7 6 7 8 7 7 8 8 8 8 8 9 10 11 13 12 11 10 10 10 9 9 9 8 8 9 9 8 7 7 8 9 9 10 10 11 10 10 10 9 9 10 11
3 4 4 5 4 4 6 6 5 7 8 8 8 8 7 7 7 7 7 8 9 9 10 10 10 10 10 9 9 8 8 8 8 8 8 7 8 8 8 8 9 9 8 9 9 8 10 9 9 10 9 9 9 9
4 4 4 4 5 6 5 6 7 7 7 8 7 6 7 5 6 6 7 6 8 9 9 9 8 7 8 8 8 6 6 7 8 8 8 9 8 9 8 8 8 8 9 9 9 9 9 10 10 9 9 9 9 9
5 3 4 4 5 4 6 5 7 6 7 7 7 6 8 8 8 7 5 7 7 7 7 7 7 7 7 7 6 6 5 6 6 8 6 7 9 9 9 9 8 8 9 9 8 9 9 9 9 8 8 8 8 9
4 4 3 3 6 9 8 5 7 7 9 8 7 9 9 8 7 6 9 7 6 6 6 6 5 5 4 5 5 5 5 6 8 9 9 9 9 9 9 9 9 8 8 8 8 8 8 7 7 7 7 7 7 8
4 4 6 7 8 9 6 8 6 7 8 9 9 11 10 8 6 9 9 9 6 6 6 6 4 5 6 7 7 7 7 8 8 9 9 9 9 9 9 9 9 8 8 8 7 6 6 7 6 7 7 7 8 8
8 9 8 12 7 8 9 9 9 9 10 9 10 10 9 7 10 10 10 8 7 7 5 5 6 6 6 7 8 8 8 8 9 9 9 9 9 9 8 8 8 7 6 7 7 6 5 5 6 6 6 7 7 8
10 7 9 8 8 9 9 10 10 10 9 9 9 8 7 9 10 11 9 7 7 6 6 6 7 8 8 8 8 9 9 8 8 9 9 9 7 7 8 8 7 7 6 6 5 5 4 4 4 4 5 5 6 6
10 9 8 6 7 7 8 8 8 9 10 10 9 9 9 11 11 8 6 6 6 5 5 5 7 8 8 9 9 8 8 8 8 8 8 7 7 8 7 7 7 6 6 4 4 4 3 3 4 5 5 5 6 6
7 7 9 8 8 8 9 9 9 9 9 8 8 10 10 10 10 7 6 5 4 5 7 7 7 7 7 9 9 8 9 8 8 8 8 8 8 8 6 6 5 4 4 4 4 4 4 5 5 4 4 6 6 6
8 7 7 8 8 8 8 9 8 7 6 7 9 9 8 6 6 6 5 5 6 8 8 8 8 7 7 8 8 9 10 10 10 11 11 11 10 9 8 6 6 6 5 5 4 4 4 4 5 5 5 5 6 6
7 6 7 8 9 9 7 7 7 6 6 6 6 6 6 5 4 5 8 8 8 9 9 8 9 8 10 10 11 10 10 10 11 11 11 11 10 10 9 8 8 7 6 5 5 5 4 4 5 5 5 6 7 7
6 6 7 7 8 7 7 6 5 5 5 6 5 7 7 6 7 7 8 8 8 7 8 9 9 9 9 10 11 12 12 10 10 9 10 10 10 10 10 9 9 8 7 6 6 6 6 5 6 7 7 7 7 7
7 7 7 8 8 6 6 6 7 7 7 7 7 6 6 6 9 9 8 8 8 9 8 8 9 10 10 10 10 10 9 11 10 10 10 10 10 10 10 10 9 8 8 8 7 7 7 7 7 7 8 8 7 7
7 7 7 7 8 8 6 7 7 8 7 8 7 6 6 6 9 8 8 8 7 7 8 9 8 8 9 9 9 10 9 10 9 8 8 8 9 9 10 10 9 9 9 9 9 9 9 9 9 9 9 9 9 9